User: anonymous   Login
Location: Young's Pond
(41.2695°N, 72.7766°W)
Time: 18:48:23
(UTC-04:00)
Language:

Spot 4 - Orbit

View from above orbital plane
View from above orbital plane
View from above satellite
View from above satellite

Ground track
Ground track

The orbit data is extracted from the following two-line orbital elements,

1 25260U 98017A   17178.94047831 -.00000047 +00000-0 -15060-6 0  9991
2 25260 098.3496 261.2972 0012070 238.2203 121.7814 14.53481796003415
Epoch (UTC): 27 June 2017 22:34:17
Eccentricity: 0.0012070
inclination: 98.3496°
perigee height: 706 km
apogee height: 723 km
right ascension of ascending node: 261.2972°
argument of perigee: 238.2203°
revolutions per day: 14.53481796
mean anomaly at epoch: 121.7814°
orbit number at epoch: 341

The dashed part of the orbit path shows where the satellite is in the earth's shadow,  

DLR